Tracking 22455 objects as of 9-Mar-2021
HD Live streaming from Space Station
objects crossing your sky now

BREEZE-M DEB

Track BREEZE-M DEB now!
10-day predictions


NORAD ID: 38922
Int'l Code: 2012-044BF
Perigee: 264.9 km
Apogee: 3,748.6 km
Inclination: 50.1 °
Period: 127.2 minutes
Semi major axis: 8377 km
RCS: 0.249 m2 (medium)
Launch date: August 6, 2012
Source: Commonwealth of Independent States (former USSR) (CIS)
Launch site: TYURATAM MISSILE AND SPACE COMPLEX (TTMTR)

Note: This is SATELLITE DEBRIS
aabbcc
Your satellite tracking list
Your tracking list is empty




NASA's NSSDC Master Catalog

Two Line Element Set (TLE):
1 38922U 12044BF  21067.75442858  .00017499  35254-5  39273-3 0  9995
2 38922  50.0594 319.2385 2079141   0.6336 359.6482 11.32162581334447
Source of the keplerian elements: AFSPC